CW5333 Weather Reports


Display with metric or nautical units.
time (UTC)temp
F
wind
direction
speed
MPH
gust
MPH
rain 1hr
in
rain 24hr
in
rain mn
in
humidity
%
barometer
mb
20260507113803 37 331 0.0 0.0 0.00 0.00 0.00 97 1017.4
20260507112803 37 331 0.0 0.0 0.00 0.00 0.00 97 1017.3
20260507112307 37 331 0.0 0.0 0.00 0.00 0.00 97 1017.2
20260507111803 37 331 0.0 0.0 0.00 0.00 0.00 97 1017.2
20260507111303 37 331 0.0 0.0 0.00 0.00 0.00 97 1017.2
20260507110804 37 331 0.0 0.0 0.00 0.00 0.00 97 1017.2
20260507110304 37 331 0.0 0.0 0.00 0.00 0.00 97 1017.2
20260507105306 37 331 0.0 0.0 0.00 0.00 0.00 97 1017.2
20260507104803 37 331 0.0 0.0 0.00 0.00 0.00 97 1017.2
20260507103804 37 331 0.0 0.0 0.00 0.00 0.00 97 1017.3
20260507103303 37 331 0.0 0.0 0.00 0.00 0.00 96 1017.3
20260507102803 37 331 0.0 0.0 0.00 0.00 0.00 96 1017.3
20260507102306 37 331 0.0 0.0 0.00 0.00 0.00 96 1017.3
20260507101804 37 331 0.0 0.0 0.00 0.00 0.00 96 1017.3
20260507101303 38 331 0.0 0.0 0.00 0.00 0.00 96 1017.3
20260507100304 38 331 0.0 0.0 0.00 0.00 0.00 96 1017.3
20260507095306 39 331 0.0 0.0 0.00 0.00 0.00 96 1017.4
20260507094303 39 331 0.0 0.0 0.00 0.00 0.00 96 1017.5
20260507093803 39 331 0.0 0.0 0.00 0.00 0.00 96 1017.5
20260507093304 40 331 0.0 0.0 0.00 0.00 0.00 96 1017.4
20260507092804 40 331 0.0 0.0 0.00 0.00 0.00 96 1017.4
20260507092306 40 331 0.0 0.0 0.00 0.00 0.00 96 1017.4
20260507091804 40 331 0.0 0.0 0.00 0.00 0.00 96 1017.4
20260507091303 40 331 0.0 1.0 0.00 0.00 0.00 96 1017.4
20260507090804 40 322 0.0 2.0 0.00 0.00 0.00 96 1017.4
20260507085803 40 302 1.0 3.0 0.00 0.00 0.00 97 1017.5
20260507085306 39 260 1.0 3.0 0.00 0.00 0.00 97 1017.5
20260507084803 39 214 0.0 0.0 0.00 0.00 0.00 97 1017.5
20260507084304 39 214 0.0 0.0 0.00 0.00 0.00 97 1017.5
20260507083804 39 214 0.0 0.0 0.00 0.00 0.00 96 1017.5
20260507083304 39 214 0.0 0.0 0.00 0.00 0.00 96 1017.5
20260507082803 39 214 1.0 2.0 0.00 0.00 0.00 97 1017.6
20260507082306 39 222 1.0 2.0 0.00 0.00 0.00 96 1017.6
20260507081804 39 14 0.0 0.0 0.00 0.00 0.00 96 1017.6
20260507080803 39 14 0.0 0.0 0.00 0.00 0.00 96 1017.5
20260507075804 40 14 0.0 0.0 0.00 0.00 0.00 95 1017.5
20260507075306 40 14 0.0 0.0 0.00 0.00 0.00 95 1017.5
20260507074804 40 14 0.0 0.0 0.00 0.00 0.00 95 1017.6
20260507074303 40 14 0.0 1.0 0.00 0.00 0.00 95 1017.6
20260507073803 40 15 0.0 2.0 0.00 0.00 0.00 95 1017.6
20260507073304 40 2 0.0 2.0 0.00 0.00 0.00 95 1017.7
20260507072803 40 3 0.0 2.0 0.00 0.00 0.00 95 1017.6
20260507072306 40 20 2.0 2.0 0.00 0.00 0.00 95 1017.6
20260507071804 40 28 2.0 2.0 0.00 0.00 0.00 94 1017.6
20260507071304 40 25 1.0 2.0 0.00 0.00 0.00 94 1017.7
20260507070804 40 41 0.0 1.0 0.00 0.00 0.00 94 1017.8
20260507070304 40 12 0.0 0.0 0.00 0.00 0.00 94 1017.9
20260507065803 40 12 0.0 1.0 0.00 0.00 0.00 94 1017.9
20260507065306 40 10 0.0 2.0 0.00 0.00 0.00 94 1017.9
20260507063803 41 45 1.0 2.0 0.00 0.00 0.00 94 1017.9
20260507063303 41 43 2.0 2.0 0.00 0.00 0.00 94 1018.0
20260507062803 41 29 2.0 2.0 0.00 0.00 0.00 94 1018.1
20260507061803 41 29 1.0 2.0 0.00 0.00 0.00 93 1018.2
20260507061304 41 25 0.0 2.0 0.00 0.00 0.00 93 1018.3
20260507060803 41 35 1.0 2.0 0.00 0.00 0.00 93 1018.4
20260507060303 41 21 1.0 2.0 0.00 0.00 0.00 93 1018.4
20260507055803 41 6 1.0 2.0 0.00 0.00 0.00 93 1018.4
20260507055306 41 23 0.0 2.0 0.00 0.00 0.00 93 1018.3
20260507054804 41 7 2.0 2.0 0.00 0.00 0.00 93 1018.2
20260507054303 41 25 2.0 2.0 0.00 0.00 0.00 92 1018.2
20260507053803 41 8 2.0 2.0 0.00 0.00 0.00 92 1018.2
20260507053304 41 0 1.0 2.0 0.00 0.00 0.00 92 1018.2
20260507052306 42 62 2.0 3.0 0.00 0.00 0.00 92 1018.0
20260507051804 42 79 2.0 5.0 0.00 0.00 0.00 92 1018.0
20260507051304 42 69 0.0 3.0 0.00 0.00 0.00 92 1018.0
20260507050812 42 253 0.0 0.0 0.00 0.00 0.00 92 1018.0
20260507050304 42 253 0.0 0.0 0.00 0.00 0.00 92 1018.0
20260507045804 42 322 0.0 1.0 0.00 0.00 0.00 92 1018.1
20260507045306 42 319 1.0 1.0 0.00 0.00 0.00 92 1018.1
20260507044303 42 234 0.0 0.0 0.00 0.00 0.00 92 1018.0
20260507043804 41 234 0.0 0.0 0.00 0.00 0.00 91 1018.1
20260507043303 42 234 0.0 0.0 0.00 0.00 0.00 91 1018.1
20260507042804 42 234 0.0 0.0 0.00 0.00 0.00 90 1018.1
20260507042306 42 234 0.0 0.0 0.00 0.00 0.00 90 1018.1
20260507041804 42 234 0.0 0.0 0.00 0.00 0.00 90 1018.2
20260507041304 42 234 0.0 0.0 0.00 0.00 0.00 90 1018.2
20260507040804 43 234 0.0 0.0 0.00 0.00 0.00 89 1018.3
20260507040304 43 234 0.0 0.0 0.00 0.00 0.00 89 1018.4
20260507035804 44 233 0.0 2.0 0.00 0.00 0.00 89 1018.4
20260507035306 44 358 0.0 2.0 0.00 0.00 0.00 88 1018.3
20260507034804 44 27 0.0 0.0 0.00 0.00 0.00 88 1018.3
20260507034304 44 27 0.0 0.0 0.00 0.00 0.00 87 1018.3
20260507033805 44 27 0.0 0.0 0.00 0.00 0.00 85 1018.2
20260507033304 44 27 0.0 0.0 0.00 0.00 0.00 84 1018.2
20260507032804 44 27 0.0 1.0 0.00 0.00 0.00 83 1018.1
20260507032305 44 26 0.0 0.0 0.00 0.00 0.00 83 1018.0
20260507031804 45 26 0.0 1.0 0.00 0.00 0.00 82 1018.0
20260507031304 45 358 0.0 1.0 0.00 0.00 0.00 82 1018.0
20260507030803 45 19 1.0 2.0 0.00 0.00 0.00 81 1018.0
20260507030303 45 68 0.0 1.0 0.00 0.00 0.00 80 1017.9
20260507025306 46 25 0.0 0.0 0.00 0.00 0.00 78 1018.1
20260507024804 46 25 0.0 2.0 0.00 0.00 0.00 77 1018.1
20260507024304 47 23 1.0 2.0 0.00 0.00 0.00 76 1017.9
20260507023804 47 26 1.0 2.0 0.00 0.00 0.00 76 1017.9
20260507022804 48 343 0.0 2.0 0.00 0.00 0.00 73 1017.9
20260507022306 49 4 2.0 3.0 0.00 0.00 0.00 70 1017.9
20260507020804 49 21 2.0 3.0 0.00 0.00 0.00 70 1017.6
20260507020303 49 20 2.0 3.0 0.00 0.00 0.00 72 1017.6
20260507015804 50 20 2.0 5.0 0.00 0.00 0.00 68 1017.5
20260507015306 50 19 2.0 3.0 0.00 0.00 0.00 70 1017.5
20260507014303 51 13 1.0 3.0 0.00 0.00 0.00 68 1017.3
20260507013804 52 8 1.0 3.0 0.00 0.00 0.00 67 1017.3
20260507013304 52 16 1.0 3.0 0.00 0.00 0.00 64 1017.2
20260507012804 53 9 2.0 2.0 0.00 0.00 0.00 61 1017.1
20260507012306 53 18 2.0 2.0 0.00 0.00 0.00 58 1017.0
20260507011804 54 18 1.0 2.0 0.00 0.00 0.00 54 1017.0
20260507011304 55 18 1.0 2.0 0.00 0.00 0.00 52 1017.0
20260507010804 56 25 1.0 2.0 0.00 0.00 0.00 54 1017.0
20260507010304 57 23 0.0 2.0 0.00 0.00 0.00 50 1017.0
20260507005804 58 32 1.0 2.0 0.00 0.00 0.00 45 1017.0
20260507005305 59 339 0.0 2.0 0.00 0.00 0.00 44 1016.9
20260507004804 60 4 0.0 2.0 0.00 0.00 0.00 41 1016.9
20260507004303 60 5 1.0 3.0 0.00 0.00 0.00 42 1016.9
20260507003804 61 342 1.0 2.0 0.00 0.00 0.00 40 1016.9
20260507002804 61 27 1.0 6.0 0.00 0.00 0.00 40 1016.7
20260507001804 62 1 2.0 3.0 0.00 0.00 0.00 38 1016.7
20260507001304 62 5 1.0 6.0 0.00 0.00 0.00 38 1016.7
20260507000804 61 6 1.0 5.0 0.00 0.00 0.00 39 1016.6
20260507000306 61 32 3.0 7.0 0.00 0.00 0.00 38 1016.6
20260506235804 62 26 3.0 6.0 0.00 0.00 0.00 37 1016.6
20260506235306 62 10 3.0 7.0 0.00 0.00 0.00 39 1016.5
20260506234804 62 24 4.0 7.0 0.00 0.00 0.00 37 1016.5
20260506234304 62 25 3.0 7.0 0.00 0.00 0.00 37 1016.5
20260506233803 62 36 2.0 6.0 0.00 0.00 0.00 37 1016.5
20260506233304 62 13 3.0 5.0 0.00 0.00 0.00 39 1016.5
20260506232804 61 350 4.0 7.0 0.00 0.00 0.00 39 1016.4
20260506232306 61 10 4.0 8.0 0.00 0.00 0.00 40 1016.5
20260506231804 61 38 6.0 9.0 0.00 0.00 0.00 38 1016.5
20260506231304 62 30 2.0 9.0 0.00 0.00 0.00 40 1016.5
20260506230803 62 27 4.0 9.0 0.00 0.00 0.00 40 1016.5
20260506230303 62 25 4.0 10.0 0.00 0.00 0.00 40 1016.5
20260506225804 62 294 3.0 7.0 0.00 0.00 0.00 38 1016.5
20260506225305 62 18 3.0 6.0 0.00 0.00 0.00 40 1016.6
20260506224804 62 339 4.0 9.0 0.00 0.00 0.00 42 1016.6
20260506223804 61 356 3.0 10.0 0.00 0.00 0.00 38 1016.5
20260506223303 61 33 4.0 9.0 0.00 0.00 0.00 40 1016.5
20260506222306 61 21 5.0 9.0 0.00 0.00 0.00 39 1016.5
20260506221804 61 20 3.0 7.0 0.00 0.00 0.00 41 1016.5
20260506221303 61 8 5.0 9.0 0.00 0.00 0.00 40 1016.5
20260506220803 61 15 6.0 9.0 0.00 0.00 0.00 37 1016.5
20260506220305 61 16 3.0 8.0 0.00 0.00 0.00 38 1016.5
20260506215804 61 331 6.0 9.0 0.00 0.00 0.00 41 1016.5
20260506215306 61 330 3.0 9.0 0.00 0.00 0.00 39 1016.6
20260506214803 61 277 3.0 9.0 0.00 0.00 0.00 38 1016.7
20260506214304 61 13 6.0 10.0 0.00 0.00 0.00 40 1016.8
20260506213804 61 323 6.0 12.0 0.00 0.00 0.00 40 1016.9
20260506213303 61 54 6.0 10.0 0.00 0.00 0.00 40 1016.8
20260506212804 60 358 2.0 7.0 0.00 0.00 0.00 40 1016.9
20260506212306 60 349 6.0 10.0 0.00 0.00 0.00 39 1017.0
20260506211804 60 17 4.0 10.0 0.00 0.00 0.00 40 1017.0
20260506211304 60 22 7.0 10.0 0.00 0.00 0.00 38 1017.0
20260506210803 60 41 5.0 10.0 0.00 0.00 0.00 39 1017.0
20260506210304 61 37 6.0 10.0 0.00 0.00 0.00 38 1017.0
20260506205804 61 345 5.0 10.0 0.00 0.00 0.00 39 1017.0
20260506204803 61 44 2.0 9.0 0.00 0.00 0.00 41 1017.0
20260506204304 61 47 6.0 13.0 0.00 0.00 0.00 38 1017.0
20260506203803 60 45 4.0 12.0 0.00 0.00 0.00 41 1017.1
20260506203304 61 48 6.0 10.0 0.00 0.00 0.00 38 1017.1
20260506202804 61 45 6.0 9.0 0.00 0.00 0.00 41 1017.2
20260506202306 60 327 5.0 12.0 0.00 0.00 0.00 41 1017.1
20260506201803 60 3 6.0 12.0 0.00 0.00 0.00 41 1017.2
20260506201304 60 45 6.0 12.0 0.00 0.00 0.00 40 1017.2
20260506200803 61 6 6.0 10.0 0.00 0.00 0.00 40 1017.3
20260506200304 61 47 3.0 9.0 0.00 0.00 0.00 41 1017.3
20260506195306 61 345 5.0 9.0 0.00 0.00 0.00 42 1017.3
20260506194804 60 348 5.0 12.0 0.00 0.00 0.00 41 1017.4
20260506194303 60 292 5.0 9.0 0.00 0.00 0.00 41 1017.4
20260506193803 60 24 7.0 12.0 0.00 0.00 0.00 42 1017.4
20260506193304 60 48 7.0 13.0 0.00 0.00 0.00 42 1017.5
20260506192305 60 16 5.0 10.0 0.00 0.00 0.00 42 1017.7
20260506191803 60 49 6.0 9.0 0.00 0.00 0.00 40 1017.7
20260506191303 60 7 6.0 10.0 0.00 0.00 0.00 42 1017.7
20260506190804 60 25 7.0 13.0 0.00 0.00 0.00 39 1017.9
20260506190304 60 33 7.0 12.0 0.00 0.00 0.00 41 1017.8
20260506185803 59 35 5.0 8.0 0.00 0.00 0.00 42 1017.9
20260506185306 59 357 5.0 10.0 0.00 0.00 0.00 43 1017.9
20260506184804 58 13 4.0 10.0 0.00 0.00 0.00 46 1018.0
20260506184304 58 340 3.0 9.0 0.00 0.00 0.00 45 1018.0
20260506183803 58 330 3.0 7.0 0.00 0.00 0.00 46 1018.1
20260506183303 59 45 4.0 9.0 0.00 0.00 0.00 46 1018.1
20260506182803 59 43 7.0 12.0 0.00 0.00 0.00 43 1018.1
20260506182306 59 20 4.0 12.0 0.00 0.00 0.00 46 1018.2
20260506181304 59 266 3.0 8.0 0.00 0.00 0.00 43 1018.2
20260506180804 59 325 3.0 8.0 0.00 0.00 0.00 46 1018.2
20260506180303 59 2 2.0 6.0 0.00 0.00 0.00 45 1018.3
20260506175306 58 58 5.0 9.0 0.00 0.00 0.00 46 1018.5
20260506174304 58 34 5.0 8.0 0.00 0.00 0.00 47 1018.5
20260506173804 58 350 4.0 9.0 0.00 0.00 0.00 47 1018.7
20260506172803 58 338 1.0 8.0 0.00 0.00 0.00 47 1018.7
20260506171804 58 311 5.0 10.0 0.00 0.00 0.00 49 1018.8
20260506171304 58 338 5.0 10.0 0.00 0.00 0.00 49 1018.9
20260506170804 58 43 6.0 9.0 0.00 0.00 0.00 48 1018.9
20260506165803 58 40 7.0 13.0 0.00 0.00 0.00 47 1018.8
20260506165305 57 345 5.0 10.0 0.00 0.00 0.00 51 1018.8
20260506164804 57 342 4.0 8.0 0.00 0.00 0.00 48 1018.8
20260506164304 56 34 5.0 9.0 0.00 0.00 0.00 53 1018.8
20260506163803 56 30 3.0 8.0 0.00 0.00 0.00 55 1018.8
20260506163304 56 353 5.0 10.0 0.00 0.00 0.00 52 1018.8
20260506162804 55 4 5.0 10.0 0.00 0.00 0.00 54 1018.7
20260506162306 56 280 7.0 13.0 0.00 0.00 0.00 55 1018.5
20260506161803 56 32 6.0 9.0 0.00 0.00 0.00 56 1018.4
20260506161304 56 330 5.0 10.0 0.00 0.00 0.00 56 1018.2
20260506160804 55 341 5.0 9.0 0.00 0.00 0.00 58 1017.9
20260506160304 55 6 6.0 9.0 0.00 0.00 0.00 55 1018.0
20260506155804 55 313 4.0 8.0 0.00 0.00 0.00 55 1018.0
20260506155306 54 299 4.0 14.0 0.00 0.00 0.00 59 1018.0
20260506154804 54 295 6.0 9.0 0.00 0.00 0.00 56 1018.0
20260506154304 55 312 5.0 12.0 0.00 0.00 0.00 58 1018.0
20260506153804 55 305 5.0 7.0 0.00 0.00 0.00 57 1018.1
20260506153304 55 310 4.0 10.0 0.00 0.00 0.00 61 1017.9
20260506152804 55 337 4.0 7.0 0.00 0.00 0.00 65 1017.8
20260506152305 55 336 6.0 9.0 0.00 0.00 0.00 60 1017.8
20260506151803 55 303 4.0 8.0 0.00 0.00 0.00 59 1017.9
20260506151304 54 352 3.0 6.0 0.00 0.00 0.00 59 1018.0
20260506150804 54 36 6.0 10.0 0.00 0.00 0.00 57 1018.0
20260506150305 54 12 5.0 9.0 0.00 0.00 0.00 58 1017.9
20260506145804 54 10 5.0 8.0 0.00 0.00 0.00 58 1017.8
20260506145305 54 67 6.0 9.0 0.00 0.00 0.00 60 1017.7
20260506144803 53 34 2.0 6.0 0.00 0.00 0.00 67 1017.8
20260506144304 53 353 4.0 10.0 0.00 0.00 0.00 63 1017.8
20260506143803 53 329 5.0 9.0 0.00 0.00 0.00 65 1017.8
20260506143304 53 321 4.0 8.0 0.00 0.00 0.00 66 1018.0
20260506142804 52 344 2.0 6.0 0.00 0.00 0.00 69 1018.1
20260506142306 52 283 3.0 6.0 0.00 0.00 0.00 70 1018.1
20260506141803 51 352 4.0 9.0 0.00 0.00 0.00 69 1018.1
20260506141304 51 302 2.0 6.0 0.00 0.00 0.00 76 1018.0
20260506140804 50 292 4.0 8.0 0.00 0.00 0.00 77 1018.1
20260506140303 50 299 4.0 6.0 0.00 0.00 0.00 77 1018.2
20260506135803 50 265 5.0 8.0 0.00 0.00 0.00 77 1017.9
20260506135306 50 269 3.0 9.0 0.00 0.00 0.00 75 1018.0
20260506134803 51 271 4.0 7.0 0.00 0.00 0.00 74 1018.0
20260506134303 51 287 3.0 6.0 0.00 0.00 0.00 75 1017.9
20260506133803 50 267 2.0 3.0 0.00 0.00 0.00 74 1017.9
20260506133304 49 254 2.0 5.0 0.00 0.00 0.00 78 1017.7
20260506132804 49 228 2.0 3.0 0.00 0.00 0.00 78 1017.5
20260506130804 47 323 0.0 2.0 0.00 0.00 0.00 88 1017.4
20260506130304 47 339 1.0 2.0 0.00 0.00 0.00 90 1017.3
20260506125803 46 346 1.0 2.0 0.00 0.00 0.00 91 1017.4
20260506125305 46 313 1.0 2.0 0.00 0.00 0.00 91 1017.5
20260506124804 46 320 2.0 2.0 0.00 0.00 0.00 92 1017.4
20260506124304 46 331 0.0 2.0 0.00 0.00 0.00 92 1017.4
20260506123804 45 308 1.0 2.0 0.00 0.00 0.00 92 1017.4
20260506123304 45 352 1.0 3.0 0.00 0.00 0.00 92 1017.3
20260506122804 45 358 1.0 2.0 0.00 0.00 0.00 92 1017.4
20260506122305 45 306 2.0 3.0 0.00 0.00 0.00 92 1017.4
20260506121304 45 313 2.0 5.0 0.00 0.00 0.00 92 1017.3
20260506120803 45 350 2.0 3.0 0.00 0.00 0.00 92 1017.2
20260506115804 45 359 2.0 3.0 0.00 0.00 0.00 92 1017.0
20260506114303 44 324 1.0 3.0 0.00 0.00 0.00 91 1016.4